CPA300 LIMJ-EPKK

Flight info

Callsign CPA300
Flight time N/A
Altitude 40000
Route GEN DCT OSKOR DCT NESTI DCT MALUG DCT LEDVA DCT NETIR
Aircraft A359/H-SDE2E3GHIJ3J4J5LM1ORWXY/LB1D1

Departure

Time 2026-04-23 18:51
Airport Genoa Cristoforo Colombo Airport (LIMJ)

Arrival

Time N/A
Airport Kraków John Paul II International Airport (EPKK)
Time Latitude Longitude Altitude Speed Heading
2026-04-23 18:29 44.41494 8.84568 26 ft 0 kts 323°
2026-04-23 18:41 44.41493 8.84569 26 ft 1 kts 323°
2026-04-23 18:41 44.41480 8.84582 32 ft 3 kts 323°
2026-04-23 18:41 44.41466 8.84597 30 ft 3 kts 320°
2026-04-23 18:42 44.41457 8.84609 32 ft 3 kts 299°
2026-04-23 18:42 44.41451 8.84633 32 ft 3 kts 261°
2026-04-23 18:42 44.41457 8.84659 25 ft 3 kts 242°
2026-04-23 18:42 44.41467 8.84683 24 ft 3 kts 233°
2026-04-23 18:43 44.41478 8.84703 24 ft 1 kts 232°
2026-04-23 18:43 44.41479 8.84705 24 ft 0 kts 232°
2026-04-23 18:45 44.41472 8.84692 23 ft 6 kts 232°
2026-04-23 18:45 44.41430 8.84642 32 ft 4 kts 188°
2026-04-23 18:45 44.41414 8.84663 29 ft 5 kts 129°
2026-04-23 18:46 44.41402 8.84724 26 ft 8 kts 98°
2026-04-23 18:46 44.41388 8.84806 26 ft 10 kts 111°
2026-04-23 18:46 44.41362 8.84904 26 ft 12 kts 109°
2026-04-23 18:46 44.41294 8.84936 26 ft 12 kts 189°
2026-04-23 18:47 44.41202 8.84905 29 ft 15 kts 195°
2026-04-23 18:47 44.41110 8.84854 30 ft 12 kts 195°
2026-04-23 18:47 44.41053 8.84921 29 ft 13 kts 111°
2026-04-23 18:47 44.41025 8.85054 29 ft 16 kts 105°
2026-04-23 18:48 44.40992 8.85223 27 ft 19 kts 102°
2026-04-23 18:48 44.40959 8.85408 29 ft 20 kts 107°
2026-04-23 18:48 44.40917 8.85604 27 ft 22 kts 106°
2026-04-23 18:48 44.40879 8.85814 28 ft 22 kts 105°
2026-04-23 18:49 44.40878 8.85976 28 ft 15 kts 71°
2026-04-23 18:49 44.40867 8.86063 29 ft 7 kts 146°
2026-04-23 18:49 44.40840 8.86051 29 ft 3 kts 242°
2026-04-23 18:49 44.40839 8.86007 28 ft 7 kts 272°
2026-04-23 18:50 44.40845 8.85973 28 ft 0 kts 285°
2026-04-23 18:50 44.40858 8.85907 28 ft 33 kts 285°
2026-04-23 18:50 44.40994 8.85215 27 ft 112 kts 285°
2026-04-23 18:50 44.41256 8.83871 60 ft 170 kts 285°
2026-04-23 18:51 44.41456 8.82269 840 ft 164 kts 263°
2026-04-23 18:51 44.40846 8.81017 1607 ft 167 kts 207°
2026-04-23 18:51 44.39651 8.81004 2007 ft 185 kts 154°
2026-04-23 18:51 44.38638 8.82118 2681 ft 187 kts 141°
2026-04-23 18:52 44.37626 8.83271 3417 ft 187 kts 141°
2026-04-23 18:52 44.36608 8.84480 3951 ft 198 kts 131°
2026-04-23 18:52 44.36153 8.86261 4506 ft 202 kts 85°
2026-04-23 18:52 44.36665 8.88124 4962 ft 215 kts 64°
2026-04-23 18:53 44.37126 8.90177 5476 ft 228 kts 75°
2026-04-23 18:53 44.37537 8.92412 6004 ft 245 kts 74°
2026-04-23 18:53 44.38083 8.94722 6668 ft 256 kts 68°
2026-04-23 18:53 44.38827 8.97021 7432 ft 262 kts 60°
2026-04-23 18:54 44.39626 8.99292 8280 ft 266 kts 66°
2026-04-23 18:54 44.40275 9.01743 9156 ft 271 kts 70°
2026-04-23 18:54 44.40946 9.04225 10070 ft 274 kts 65°
2026-04-23 18:54 44.41879 9.06605 10734 ft 287 kts 56°
2026-04-23 18:55 44.43243 9.08791 11101 ft 309 kts 41°
2026-04-23 18:55 44.45018 9.10687 11500 ft 330 kts 34°
2026-04-23 18:55 44.47016 9.12410 12063 ft 343 kts 30°
2026-04-23 18:55 44.49125 9.14058 12827 ft 349 kts 29°
2026-04-23 18:56 44.50541 9.15141 13375 ft 352 kts 29°
2026-04-23 18:56 44.53432 9.17377 14403 ft 358 kts 29°
2026-04-23 18:56 44.55611 9.19109 15143 ft 361 kts 30°
2026-04-23 18:56 44.57796 9.20881 15885 ft 365 kts 30°
2026-04-23 18:57 44.59993 9.22689 16612 ft 368 kts 30°
2026-04-23 18:57 44.62214 9.24532 17293 ft 373 kts 31°
2026-04-23 18:57 44.64436 9.26385 18000 ft 377 kts 31°
2026-04-23 18:57 44.66701 9.28275 18703 ft 381 kts 30°
2026-04-23 18:58 44.68997 9.30188 19363 ft 385 kts 30°
2026-04-23 18:58 44.71308 9.32114 20050 ft 388 kts 30°
2026-04-23 18:58 44.73634 9.34053 20766 ft 391 kts 30°
2026-04-23 18:58 44.75985 9.36014 21451 ft 395 kts 30°
2026-04-23 18:59 44.78355 9.37995 22115 ft 399 kts 30°
2026-04-23 18:59 44.80756 9.40000 22797 ft 402 kts 30°
2026-04-23 18:59 44.83177 9.42026 23495 ft 406 kts 30°
2026-04-23 18:59 44.85613 9.44066 24066 ft 410 kts 30°
2026-04-23 19:00 44.88073 9.46128 24653 ft 413 kts 31°
2026-04-23 19:00 44.90550 9.48207 25256 ft 415 kts 31°
2026-04-23 19:00 44.93045 9.50303 25853 ft 418 kts 31°
2026-04-23 19:00 44.95557 9.52415 26413 ft 421 kts 31°
2026-04-23 19:01 44.98052 9.54515 26982 ft 425 kts 31°
2026-04-23 19:01 45.00633 9.56691 27574 ft 427 kts 31°
2026-04-23 19:01 45.03155 9.58819 28129 ft 430 kts 31°
2026-04-23 19:01 45.05736 9.60999 28659 ft 434 kts 32°
2026-04-23 19:02 45.07494 9.62486 29053 ft 436 kts 31°
2026-04-23 19:02 45.10950 9.65411 29764 ft 439 kts 32°
2026-04-23 19:02 45.13585 9.67645 30245 ft 443 kts 32°
2026-04-23 19:02 45.16237 9.69893 30639 ft 446 kts 32°
2026-04-23 19:03 45.18899 9.72154 31143 ft 445 kts 32°
2026-04-23 19:03 45.21563 9.74418 31571 ft 447 kts 32°
2026-04-23 19:03 45.24242 9.76698 31906 ft 451 kts 32°
2026-04-23 19:03 45.26942 9.78998 32237 ft 454 kts 32°
2026-04-23 19:04 45.29653 9.81310 32561 ft 456 kts 32°
2026-04-23 19:04 45.32384 9.83642 32888 ft 459 kts 32°
2026-04-23 19:04 45.35126 9.85987 33194 ft 461 kts 32°
2026-04-23 19:04 45.37875 9.88339 33727 ft 458 kts 32°
2026-04-23 19:05 45.40597 9.90670 34249 ft 456 kts 32°
2026-04-23 19:05 45.43279 9.92970 34624 ft 455 kts 32°
2026-04-23 19:05 45.45992 9.95300 34964 ft 455 kts 32°
2026-04-23 19:05 45.48705 9.97633 35313 ft 455 kts 32°
2026-04-23 19:06 45.51413 9.99964 35665 ft 454 kts 32°
2026-04-23 19:06 45.54125 10.02301 36018 ft 454 kts 32°
2026-04-23 19:06 45.56824 10.04629 36412 ft 453 kts 32°
2026-04-23 19:06 45.59519 10.06957 36737 ft 452 kts 32°
2026-04-23 19:07 45.62170 10.09388 37041 ft 452 kts 36°
2026-04-23 19:07 45.64601 10.12221 37353 ft 451 kts 43°
2026-04-23 19:07 45.66717 10.15451 37645 ft 452 kts 50°
2026-04-23 19:07 45.68646 10.18999 37948 ft 452 kts 52°
2026-04-23 19:08 45.70504 10.22616 38209 ft 452 kts 53°
2026-04-23 19:08 45.72336 10.26288 38440 ft 455 kts 53°
2026-04-23 19:08 45.74164 10.29999 38598 ft 457 kts 53°
2026-04-23 19:08 45.75999 10.33731 38843 ft 457 kts 53°
2026-04-23 19:09 45.77835 10.37458 39051 ft 457 kts 53°
2026-04-23 19:09 45.79676 10.41188 39206 ft 458 kts 53°
2026-04-23 19:09 45.81502 10.44922 39411 ft 458 kts 54°
2026-04-23 19:09 45.83234 10.48769 39604 ft 458 kts 56°
2026-04-23 19:10 45.84892 10.52670 39767 ft 459 kts 57°
2026-04-23 19:10 45.86528 10.56602 39948 ft 459 kts 57°
2026-04-23 19:10 45.88165 10.60533 40124 ft 459 kts 57°
2026-04-23 19:11 45.91462 10.68364 40200 ft 457 kts 57°
2026-04-23 19:11 45.94765 10.76114 40213 ft 457 kts 56°
2026-04-23 19:12 45.97554 10.82647 40213 ft 457 kts 56°
2026-04-23 19:12 46.01415 10.91719 40217 ft 457 kts 56°
2026-04-23 19:13 46.04728 10.99529 40225 ft 457 kts 57°
2026-04-23 19:13 46.08017 11.07308 40224 ft 457 kts 57°
2026-04-23 19:14 46.11316 11.15135 40226 ft 457 kts 57°
2026-04-23 19:14 46.14615 11.22983 40226 ft 457 kts 57°
2026-04-23 19:15 46.17911 11.30845 40187 ft 457 kts 57°
2026-04-23 19:15 46.21199 11.38710 40187 ft 457 kts 57°
2026-04-23 19:16 46.24487 11.46595 40176 ft 458 kts 57°
2026-04-23 19:16 46.27765 11.54479 40173 ft 458 kts 57°
2026-04-23 19:17 46.32648 11.66268 40153 ft 457 kts 57°
2026-04-23 19:17 46.35864 11.74062 40156 ft 457 kts 57°
2026-04-23 19:18 46.39119 11.81968 40147 ft 455 kts 57°
2026-04-23 19:18 46.42343 11.89827 40151 ft 454 kts 58°
2026-04-23 19:19 46.47177 12.01648 40146 ft 453 kts 58°
2026-04-23 19:20 46.51987 12.13459 40148 ft 453 kts 58°
2026-04-23 19:20 46.55191 12.21356 40210 ft 453 kts 58°
2026-04-23 19:21 46.57841 12.27906 40218 ft 452 kts 58°